{"data":{"norad_id":52568,"intl_designator":"2022-051AM","name":"STARLINK-3930","alt_names":[],"object_type":"PAYLOAD","status":"ACTIVE","operator":null,"country":"US","launch_date":"2022-05-13","launch_site_code":"AFWTR","launch_vehicle":null,"mission":null,"orbit_class":"UNKNOWN","rcs_meters":null,"size_class":null,"mass_kg":null,"dimensions":null,"purposes":["comms"],"wikipedia_slug":null,"has_3d_model":false,"image_url":null,"decayed_at":null,"tle_current":{"epoch":"2026-09-19T19:08:41.911584Z","epoch_age_seconds":124036,"freshness":"FRESH","line1":"1 52568U 22051AM  26262.79770731  .00000693  00000+0  31675-4 0  9998","line2":"2 52568  53.1609 311.1711 0001265  79.7659 280.3486 15.34381889241114","mean_motion":15.34381889,"eccentricity":0.0001265,"inclination_deg":53.1609,"raan_deg":311.1711,"arg_perigee_deg":79.7659,"mean_anomaly_deg":280.3486,"bstar":3.1675e-5,"rev_number":24111,"period_min":93.84886580866,"perigee_km":461.89169734539,"apogee_km":463.62244354522,"semimajor_km":6840.8940704453,"source":"CELESTRAK","updated_at":"2026-09-20T09:00:40.064219Z"}}}